User: anonymous   Login
Location: Fishcreek Rd Observing Site
(41.1865°N, 81.4271°W)
Time: 02:31:57
(UTC-04:00)
Language:

Iridium 75 - Orbit

View from above orbital plane
View from above orbital plane
View from above satellite
View from above satellite

Ground track
Ground track

The orbit data is extracted from the following two-line orbital elements,

1 25346U 98032E   16208.53481457  .00000027  00000-0  26517-5 0  9991
2 25346  86.3971   0.2437 0002182  90.6096 337.4932 14.34213014952993
Epoch (UTC): 26 July 2016 12:50:07
Eccentricity: 0.0002182
inclination: 86.3971°
perigee height: 776 km
apogee height: 779 km
right ascension of ascending node: 0.2437°
argument of perigee: 90.6096°
revolutions per day: 14.34213014
mean anomaly at epoch: 337.4932°
orbit number at epoch: 95299

The dashed part of the orbit path shows where the satellite is in the earth's shadow,  

DLR